Regional Weather Roundup
Issued by NWS

Home | Current Version | Previous Version | Text Only | Print | Product List | Glossary Off
Versions: 1 2 3 4 5 6 7 8 9 10 11 12 13 14 15 16 17 18 19 20 21 22 23 24 25 26 27 28 29 30 31 32 33 34 35 36 37 38 39 40 41 42 43 44 45 46 47 48 49 50

000
ASUS43 KOAX 060102
RWRNE

WEATHER ROUNDUP FOR NEBRASKA
NATIONAL WEATHER SERVICE OMAHA NE
700 PM CST MON DEC 05 2016

NOTES: SATELLITE DATA IS BEING USED TO AUGMENT CLOUD COVER ABOVE
       12000 FEET.
       "FAIR" INDICATES FEW OR NO CLOUDS BELOW 12,000 FEET WITH NO
       SIGNIFICANT WEATHER AND/OR OBSTRUCTIONS TO VISIBILITY.

  * THESE STATIONS DO NOT REPORT WEATHER SUCH AS RAIN...SNOW OR FOG.

NEZ001>004-019>022-054>056-060200-
NEBRASKA PANHANDLE

CITY           SKY/WX    TMP DP  RH WIND       PRES   REMARKS
SCOTTSBLUFF    MOCLDY    22   9  57 NW15      29.91R WCI   9
ALLIANCE       CLEAR     22  11  62 NW25G35   29.82R WCI   5
CHADRON        CLOUDY    21  12  68 W15       29.90R WCI   8
KIMBALL        CLEAR     21  13  71 NW40G48   29.74F WCI   0
SIDNEY         CLOUDY    24  12  60 N18G29    29.85R WCI  10
$$

NEZ057>060-069>072-079>082-060200-
SOUTHWEST NEBRASKA

CITY           SKY/WX    TMP DP  RH WIND       PRES   REMARKS
NORTH PLATTE   CLOUDY    29  17  61 N16       29.86R WCI  17
IMPERIAL       CLOUDY    32  19  58 N23       29.85R WCI  19
LEXINGTON      CLOUDY    34  24  67 N29G37    29.79R WCI  20
MCCOOK         CLOUDY    38  25  59 N31G39    29.79R WCI  25
OGALLALA       MOCLDY    28  20  72 N12G17    29.87R WCI  18
$$

NEZ005>010-023>029-035>040-094-060200-
NORTH CENTRAL NEBRASKA

CITY           SKY/WX    TMP DP  RH WIND       PRES   REMARKS
VALENTINE      PTCLDY    23  15  71 NW23G35   29.83R WCI   7
AINSWORTH      CLOUDY    26  19  74 NW24G32   29.83R WCI  10
BROKEN BOW     CLOUDY    31  21  66 N21       29.81R WCI  18
O`NEILL        CLOUDY    30  22  72 NW20G29   29.81R WCI  17
ORD            CLOUDY    32  20  61 NW17G30   29.81R WCI  21
$$

NEZ041-046>049-061>064-073>077-083>087-060200-
SOUTH CENTRAL NEBRASKA

CITY           SKY/WX    TMP DP  RH WIND       PRES   REMARKS
GRAND ISLAND   CLOUDY    40  32  73 N21       29.75R WCI  30
AURORA         CLOUDY    41  33  72 N23G33    29.72R
HASTINGS       CLOUDY    45  34  65 N26G35    29.73R
HEBRON         PTCLDY    37  32  84 CALM      29.67S
HOLDREGE       CLOUDY    41  30  64 N17       29.76R
KEARNEY *      CLOUDY    41  27  56 N20G31    29.76R
YORK           CLOUDY    45  37  76 N9        29.70R
$$

NEZ011>018-030>034-042>045-060200-
NORTHEAST NEBRASKA

CITY           SKY/WX    TMP DP  RH WIND       PRES   REMARKS
NORFOLK        MOCLDY    34  26  72 NW20G33   29.76R WCI  23
ALBION         CLOUDY    34  25  70 NW23G33   29.78R WCI  22
BLAIR          CLOUDY    46  38  73 S15       29.68S
FREMONT        LGT RAIN  45  37  74 W8        29.71R
TEKAMAH        CLOUDY    43  36  76 SW3       29.70R
WAYNE          CLOUDY    38  31  78 NW18G28   29.74R WCI  28
$$

NEZ050>053-065>068-078-088>093-060200-
SOUTHEAST NEBRASKA

CITY           SKY/WX    TMP DP  RH WIND       PRES   REMARKS
LINCOLN        CLOUDY    46  34  62 SE3       29.70R
OMAHA EPPLEY   MOCLDY    45  37  73 S7        29.72R
BEATRICE       CLEAR     42  33  73 S5        29.69R
FALLS CITY     CLEAR     37  34  89 SE9       29.70S WCI  30
NEBRASKA CITY  PTCLDY    41  33  73 S9        29.71R
PLATTSMOUTH    MOCLDY    43  34  70 S7        29.71R
$$

NEZ044-045-051>053-067-060200-
OMAHA AREA

CITY           SKY/WX    TMP DP  RH WIND       PRES   REMARKS
OMAHA EPPLEY   MOCLDY    45  37  73 S7        29.72R
BLAIR          CLOUDY    46  38  73 S15       29.68S
FREMONT        LGT RAIN  45  37  74 W8        29.71R
MILLARD        MOCLDY    44  36  75 E3        29.71R
OFFUTT AFB     CLOUDY    43  41  91 S5        29.71R
PLATTSMOUTH    MOCLDY    43  34  70 S7        29.71R
WAHOO          CLOUDY    43  37  78 CALM      29.70R
$$




USA.gov is the U.S. government's official web portal to all federal, state and local government web resources and services.